EHI
0 0 0 0 0 0 0 0 0 0 0 0 0 0 0 0 0 0 0 0 0 0 0 0 0 0 0 0 0 0 0 0 0 0 0 0 0 0
0 0 0 0 0 0 0 0 0 0 0 0 0 0 0 0 0 0 0 0 0 0 0 0 0 0 0 0 0 0 0 0 0 0 0 0 0 0
0 0 0 0 0 0 0 0 0 0 0 0 0 0 0 0 0 0 0 0 0 0 0 0 0 0 0 0 0 0 0 0 0 0 0 0 0 0
0 0 0 0 0 0 0 0 0 0 0 0 0 0 0 0 0 0 0 0 0 0 0 0 0 0 0 0 0 0 0 0 0 0 0 0 0 0
0 0 0 0 0 0 0 0 0 0 0 0 0 0 0 0 0 0 0 0 0 0 0 0 0 0 0 0 0 0 0 0 0 0 0 0 0 0
0 0 0 0 0 0 0 0 0 0 0 0 0 0 0 0 0 0 0 0 0 0 0 0 0 0 0 0 0 0 0 0 0 0 0 0 0 0
0 0 0 0 0 0 0 0 0 0 0 0 0 0 0 0 0 0 0 0 0 0 0 0 0 0 0 0 0 0 0 0 0 0 0 0 0 0
0 0 0 0 0 0 0 0 0 0 0 0 0 0 0 0 0 0 0 0 0 0 0 0 0 0 0 0 0 0 0 0 0 0 0 0 0 0
0 0 0 0 0 0 0 0 0 0 0 0 0 0 0 0 0 0 0 0 0 0 0 0 0 0 0 0 0 0 0 0 0 0 0 0 0 0
0 0 0 0 0 0 0 0 0 0 0 0 0 0 0 0 0 0 0 0 0 0 0 0 0 0 0 0 0 0 0 0 0 0 0 0 0 0
0 0 0 0 0 0 0 0 0 0 0 0 0 0 0 0 0 0 0 0 0 0 0 0 0 0 0 0 0 0 0 0 0 0 0 0 0 0
0 0 0 0 0 0 0 0 0 0 0 0 0 0 0 0 0 0 0 0 0 0 0 0 0 0 0 0 0 0 0 0 0 0 0 0 0 0
0 0 0 0 0 0 0 0 0 0 0 0 0 0 0 0 0 0 0 0 0 0 0 0 0 0 0 0 0 0 0 0 0 0 0 0 0 0
0 0 0 0 0 0 0 0 0 0 0 0 0 0 0 0 0 0 0 0 0 0 0 0 0 0 0 0 0 0 0 0 0 0 0 0 0 0
0 0 0 0 0 0 0 0 0 0 0 0 0 0 0 0 0 0 0 0 0 0 0 0 0 0 0 0 0 0 0 0 0 0 0 0 0 0
0 0 0 0 0 0 0 0 0 0 0 0 0 0 0 0 0 0 0 0 0 0 0 0 0 0 0 0 0 0 0 0 0 0 0 0 0 0
0 0 0 0 0 0 0 0 0 0 0 0 0 0 0 0 0 0 0 0 0 0 0 0 0 0 0 0 0 0 0 0 0 0 0 0 0 0
0 0 0 0 0 0 0 0 0 0 0 0 0 0 0 0 0 0 0 0 0 0 0 0 0 0 0 0 0 0 0 0 0 0 0 0 0 0
0 0 0 0 0 0 0 0 0 0 0 0 0 0 0 0 0 0 0 0 0 0 0 0 0 0 0 0 0 0 0 0 0 0 0 0 0 0
0 0 0 0 0 0 0 0 0 0 0 0 0 0 0 0 0 0 0 0 0 0 0 0 0 0 0 0 0 0 0 0 0 0 0 0 0 0
0 0 0 0 0 0 0 0 0 0 0 0 0 0 0 0 0 0 0 0 0 0 0 0 0 0 0 0 0 0 0 0 0 0 0 0 0 0
0 0 0 0 0 0 0 0 0 0 0 0 0 0 0 0 0 0 0 0 0 0 0 0 0 0 0 0 0 0 0 0 0 0 0 0 0 0
0 0 0 0 0 0 0 0 0 0 0 0 0 0 0 0 0 0 0 0 0 0 0 0 0 0 0 0 0 0 0 0 0 0 0 0 0 0
Wind_Speed
1 1 1 2 1 1 1 2 3 1 2 2 2 1 1 1 2 2 2 4 5 4 4 4 5 5 5 5 5 5 5 6 7 8 9 9 9 9
2 2 2 2 1 1 1 1 2 3 2 2 2 2 1 2 2 2 2 4 5 5 5 4 4 5 5 5 5 5 5 5 5 6 7 7 8 8
2 2 3 3 2 1 1 1 1 2 3 3 2 2 1 2 1 1 2 2 2 5 5 6 5 5 5 5 5 5 5 5 5 5 6 6 7 7
3 2 3 3 2 2 1 2 2 2 3 3 2 1 2 2 2 2 2 2 2 4 5 6 6 6 6 6 6 6 6 5 5 4 5 6 6 6
3 3 4 2 3 2 2 2 2 2 2 3 3 2 1 1 1 1 1 1 2 2 4 5 5 6 6 6 6 6 6 6 5 5 5 5 5 5
3 3 3 3 4 3 3 3 2 2 2 2 2 2 2 1 1 2 1 1 1 1 1 2 3 5 6 6 6 7 6 6 6 5 5 5 5 5
4 4 4 5 5 4 3 3 3 2 2 2 2 2 2 2 2 2 3 2 1 1 1 2 2 2 3 5 6 7 7 7 6 6 6 5 5 5
5 5 5 6 6 6 6 5 5 4 4 4 3 4 4 4 3 3 3 2 2 2 2 2 2 2 3 3 5 7 7 7 7 6 6 5 5 5
4 4 5 5 5 3 5 6 5 7 7 5 5 6 6 5 4 4 4 4 4 3 2 2 2 3 3 3 6 7 7 7 7 7 6 5 5 4
4 4 4 5 5 4 4 4 4 5 6 6 6 7 6 5 5 6 5 3 2 1 3 3 2 2 2 2 5 7 7 6 6 7 6 5 5 4
5 5 4 5 8 7 4 5 6 6 6 7 8 8 9 8 6 3 3 3 3 3 2 3 2 2 1 2 3 5 6 5 5 5 5 5 5 4
5 5 7 7 10 9 4 5 7 7 5 5 5 6 6 7 8 6 6 5 3 3 3 4 3 3 1 1 1 2 2 3 3 3 4 4 5 3
5 5 5 11 11 10 8 6 9 8 5 5 4 4 4 4 5 5 5 6 6 4 4 5 3 3 3 2 0 1 2 1 1 1 1 2 4 5
6 5 6 12 12 11 8 10 12 9 3 3 4 5 5 5 5 5 6 5 5 6 6 6 4 5 4 3 2 1 1 1 2 1 1 1 2 3
6 10 12 13 12 9 10 12 10 5 4 4 5 6 5 6 4 3 4 4 3 3 4 5 5 5 4 4 3 3 2 2 2 2 2 2 2 1
6 9 13 12 8 8 8 7 5 5 5 5 6 5 3 3 4 4 4 4 3 2 1 3 5 6 4 4 4 4 3 3 3 2 2 1 1 1
6 4 4 4 4 4 4 5 4 4 5 4 5 4 4 4 4 4 4 4 4 4 3 2 2 2 4 5 4 4 3 3 3 3 3 2 1 2
8 4 5 5 6 6 5 5 5 5 5 5 5 5 5 5 4 4 4 5 6 5 5 4 4 3 2 1 2 5 3 3 3 3 3 2 2 2
5 5 6 6 6 6 6 6 6 6 5 5 5 5 5 5 4 5 5 5 5 6 5 5 5 6 5 4 2 2 5 4 3 2 2 3 3 3
4 5 6 6 7 6 6 6 6 5 5 5 6 6 5 5 5 5 5 6 6 5 5 5 6 7 8 7 4 2 3 5 4 3 2 1 0 1
6 6 6 6 7 7 6 6 6 6 6 6 6 6 6 5 6 6 6 7 7 6 7 7 7 7 4 5 4 1 0 1 5 5 4 2 1 0
7 7 7 7 7 7 6 6 6 7 7 6 6 6 6 6 7 7 7 6 6 6 7 5 5 6 4 6 5 4 3 1 2 3 4 6 5 5
7 7 7 7 7 6 6 7 8 7 7 6 7 6 6 6 6 6 7 7 6 6 6 6 5 4 4 5 5 4 4 3 2 2 1 1 2 3
Wind_Direction
274 280 273 275 266 232 193 174 171 228 286 281 282 274 237 218 231 214 225 223 205 203 205 202 200 198 206 207 199 195 197 194 196 197 200 205 207 208
282 291 285 276 279 268 219 196 180 182 234 264 257 264 245 222 219 214 226 223 214 202 201 200 198 199 201 199 191 189 189 192 189 189 195 197 199 203
315 298 282 279 279 277 251 216 201 180 218 266 262 270 244 226 231 222 218 215 214 209 203 202 202 205 201 195 189 186 184 189 193 193 192 192 198 200
299 299 294 298 281 268 251 246 233 210 200 244 271 267 247 224 209 211 210 206 211 215 206 206 204 203 201 196 190 185 183 185 189 195 199 201 200 200
287 280 279 287 285 273 258 252 249 236 205 214 251 254 258 236 201 214 200 214 215 210 208 209 203 198 198 195 190 188 186 186 188 194 204 209 206 202
283 272 273 258 254 262 260 256 250 238 222 215 239 252 253 247 178 201 223 228 230 217 214 203 198 200 198 197 193 190 189 190 192 193 196 199 200 203
299 285 276 275 268 259 259 245 231 226 223 221 233 246 247 220 213 207 207 215 240 213 204 218 197 200 203 203 201 195 192 191 191 192 190 190 192 196
305 299 291 283 287 288 280 265 231 218 221 221 226 226 235 226 219 205 195 193 235 218 184 217 186 205 213 205 203 195 191 189 189 189 189 189 192 195
296 297 302 306 303 290 293 291 266 246 223 212 223 227 226 220 205 208 206 200 216 206 166 212 198 208 222 211 199 195 194 192 190 188 190 190 190 192
288 277 278 288 295 294 286 288 278 267 250 235 227 233 229 220 209 210 207 204 228 214 168 194 201 204 204 212 207 196 194 195 193 191 190 190 193 196
287 280 277 275 288 293 279 272 280 281 271 255 244 247 246 231 208 185 183 182 216 227 194 178 187 181 189 216 215 202 195 192 191 193 193 191 188 184
295 283 282 282 292 289 266 257 263 268 276 276 267 265 253 239 216 202 196 193 193 215 201 173 174 155 180 242 194 181 182 187 180 184 192 190 177 162
295 291 285 292 292 291 280 254 257 266 257 255 256 256 253 240 227 213 201 193 194 211 191 165 168 166 166 178 203 184 171 174 165 167 175 178 175 169
283 284 285 293 294 291 285 276 275 272 250 250 256 250 242 234 228 214 206 204 204 204 187 167 169 172 159 162 194 187 175 170 159 164 162 135 134 150
277 282 288 292 294 290 281 283 280 257 234 237 247 250 244 234 221 213 211 203 203 212 185 176 165 166 163 171 176 175 176 196 177 169 167 167 173 155
289 290 294 292 284 274 281 281 265 243 236 236 244 254 257 245 221 205 202 194 191 226 214 177 173 165 166 169 168 182 181 180 178 176 166 173 184 180
296 292 290 291 287 281 274 270 265 256 248 241 241 244 253 245 234 212 197 188 195 197 193 179 155 153 160 159 168 186 178 180 180 167 157 176 229 216
298 282 280 276 273 273 273 273 266 258 248 243 238 235 239 239 236 223 202 196 202 200 189 171 151 127 85 1 184 176 174 177 171 160 153 162 224 245
288 276 273 273 272 268 263 261 262 261 255 245 240 237 236 237 229 226 212 208 209 199 189 173 169 166 176 199 252 186 169 163 152 155 170 174 200 227
268 270 274 273 270 267 262 260 261 260 254 248 242 237 233 236 232 225 216 211 209 196 184 181 184 184 188 183 176 192 173 159 160 166 166 146 229 309
276 269 267 271 271 266 261 258 256 256 253 251 245 239 232 232 234 224 219 215 207 197 195 198 198 172 131 115 121 146 190 165 167 165 157 145 160 228
273 272 270 269 273 270 264 261 259 257 252 252 252 241 232 227 232 225 216 210 210 203 199 181 149 143 142 159 164 160 153 108 79 121 153 166 166 187
273 271 269 267 266 270 264 260 258 256 248 246 250 243 231 228 228 223 217 211 200 194 178 161 154 153 158 159 153 150 151 149 128 93 27 1 166 180